Wind_Speed
13 13 12 10 9 9 7 7 8 9 11 13 16 19 19 20 22 24 25 25 25 27 27 27 26 25 25 26 26 26 25 24 24 23 23 23 24 23
14 13 13 11 10 10 8 7 8 8 10 12 15 17 18 20 22 23 24 25 25 26 27 27 27 26 26 26 26 26 26 25 25 25 25 25 25 25
16 15 13 12 12 11 10 9 8 9 10 11 13 16 18 20 21 24 25 25 25 25 26 26 27 27 27 27 27 27 27 27 26 26 26 26 26 26
17 16 15 14 13 13 13 12 11 10 11 12 13 15 17 19 21 23 24 24 25 26 27 27 27 28 28 28 28 28 28 28 28 27 27 27 27 27
19 18 17 16 15 15 14 13 12 12 12 13 15 16 17 19 21 23 23 24 24 25 26 27 28 28 28 28 28 28 28 28 28 28 28 28 28 27
21 20 19 18 17 16 15 15 15 14 14 14 16 17 18 20 21 22 23 24 24 24 25 26 27 28 28 28 28 28 28 28 28 28 28 28 29 29
23 21 20 20 19 18 17 17 17 16 16 17 17 18 19 21 22 23 24 24 24 24 25 26 27 28 28 28 28 28 28 29 29 29 29 29 29 29
26 24 23 22 21 21 20 19 18 19 19 19 19 20 20 21 23 23 24 25 25 25 25 25 27 27 27 28 28 28 28 29 29 29 29 29 29 29
29 28 27 25 24 24 23 22 21 21 20 20 20 21 21 22 23 23 24 24 25 25 25 25 26 26 27 28 28 28 28 28 29 29 29 29 29 29
33 32 30 29 28 27 26 25 25 24 23 22 22 22 22 22 23 24 25 25 26 26 26 26 27 27 27 28 29 29 29 29 29 29 29 30 30 30
36 35 34 33 31 31 30 29 27 27 26 25 25 24 24 24 25 25 25 26 26 26 26 27 27 27 27 28 29 29 29 29 29 29 29 29 30 30
39 38 37 36 34 34 33 32 31 30 29 28 27 27 26 25 26 26 27 27 27 27 27 27 28 27 27 28 28 29 29 29 29 29 29 29 29 29
42 41 40 39 38 37 37 35 34 33 32 31 30 29 28 27 26 26 27 27 28 28 28 28 28 28 27 27 27 27 28 28 28 28 29 29 29 29
44 43 42 42 41 40 39 38 37 36 35 34 33 32 30 29 28 28 27 27 27 27 28 28 28 28 28 27 27 27 27 27 27 28 28 28 28 29
46 45 44 44 45 43 42 42 41 39 38 37 36 34 33 32 31 30 30 29 28 28 28 27 28 28 27 27 27 27 27 27 27 28 28 28 28 28
47 47 46 46 46 46 45 44 43 42 41 40 38 37 36 35 34 33 32 31 30 29 29 28 28 28 27 27 27 27 27 27 27 27 27 27 27 27
49 49 48 47 47 47 47 46 45 45 44 42 41 40 39 38 36 35 34 33 32 30 30 29 29 28 28 27 27 27 27 27 28 27 26 26 27 27
50 49 48 47 47 48 49 48 47 46 46 44 43 42 41 39 38 37 35 35 33 32 31 30 30 29 28 27 27 27 27 27 27 27 27 27 27 27
49 49 48 47 47 48 50 50 48 47 47 46 44 43 43 41 40 38 37 35 34 33 32 32 31 30 29 29 28 28 27 27 27 28 28 28 28 28
49 49 49 47 47 48 49 49 48 48 48 47 46 44 44 43 42 40 39 37 36 35 34 33 32 31 31 30 29 29 29 28 28 28 29 29 29 29
48 49 48 47 46 49 49 49 48 48 49 49 47 45 44 44 43 42 40 39 38 36 35 35 33 33 33 32 31 30 30 29 28 28 28 28 28 28
46 47 47 46 45 47 49 49 49 48 48 48 47 45 44 44 44 43 42 41 39 38 37 36 35 35 34 33 32 31 30 30 29 29 29 29 29 29
44 45 46 44 43 45 46 47 48 48 47 47 47 44 43 44 43 43 42 41 41 39 38 37 37 36 35 34 33 31 31 31 30 30 30 30 30 30
Wind_Direction
344 343 342 335 329 328 312 293 275 256 247 236 229 228 229 226 223 222 222 224 228 228 228 230 232 233 234 236 237 237 239 240 241 242 244 246 248 252
336 333 332 327 320 319 314 301 284 267 252 240 234 233 232 228 227 227 227 229 230 232 230 231 234 235 236 237 238 240 241 242 244 246 248 249 250 253
328 325 321 316 312 311 305 292 282 269 254 244 240 236 233 229 229 229 232 233 233 233 232 233 235 237 238 239 240 241 243 244 246 248 250 251 252 253
321 318 315 309 305 303 298 289 279 267 256 249 244 238 233 230 231 230 231 233 234 235 236 236 238 239 239 241 242 243 245 247 248 250 251 251 252 253
317 312 307 303 300 299 296 289 280 269 260 254 248 242 238 235 234 233 232 232 234 236 237 239 240 241 241 242 243 245 247 248 250 251 253 253 253 254
310 307 303 297 293 292 290 285 276 270 264 257 251 246 243 240 238 235 233 234 236 237 240 242 241 241 241 243 245 246 247 249 251 252 254 254 255 256
304 301 298 294 289 286 285 281 274 269 265 259 254 250 247 242 239 238 237 237 239 241 243 243 242 241 243 245 246 248 249 249 251 252 254 255 257 258
298 295 291 287 285 282 280 278 273 268 265 261 257 252 249 245 242 240 240 239 240 241 243 243 243 243 244 245 246 247 248 249 251 253 254 256 258 259
294 291 287 283 280 278 276 274 271 267 264 262 259 255 250 246 243 241 242 242 242 242 242 242 243 244 245 246 247 248 250 251 252 253 255 257 259 261
289 287 284 280 276 274 272 271 268 265 262 260 258 256 253 248 245 243 242 243 242 242 243 244 245 246 246 247 248 249 252 253 254 255 257 258 260 261
285 282 280 276 273 271 269 267 265 263 261 258 257 255 254 251 247 245 245 244 244 244 245 247 248 248 248 249 250 251 252 252 254 256 258 260 260 261
283 280 276 272 269 268 266 264 262 260 258 256 255 254 253 251 248 247 247 246 246 246 247 248 248 249 249 249 251 252 253 253 255 256 258 260 260 261
282 278 273 268 265 264 263 262 261 258 257 255 253 252 252 250 249 248 247 246 245 245 247 248 248 249 249 249 251 251 252 253 255 257 259 261 262 262
280 276 271 266 263 260 259 259 258 257 256 254 252 251 251 249 249 248 248 249 247 246 246 247 249 249 249 249 250 251 252 253 255 258 260 262 263 264
278 274 270 266 262 258 256 256 256 255 255 254 252 250 249 248 248 248 248 248 248 247 247 249 249 249 249 250 250 252 253 255 257 259 261 262 264 265
275 272 269 264 261 257 254 253 253 253 252 252 251 250 249 247 247 247 247 247 247 248 248 249 248 248 248 249 250 251 253 255 257 259 261 262 264 266
274 271 267 264 260 255 253 251 250 249 250 250 249 248 248 248 247 245 245 246 246 245 246 247 249 248 248 249 250 251 253 255 257 259 260 262 264 265
273 270 266 263 259 254 251 250 248 247 247 247 247 247 247 247 247 245 244 245 245 245 245 246 248 248 249 250 250 251 253 255 256 259 261 261 263 265
272 269 265 262 258 252 249 248 247 245 244 244 244 245 246 245 245 244 244 243 243 244 244 245 247 248 249 250 251 252 254 256 257 260 262 263 264 266
273 269 265 261 257 251 249 248 245 244 243 242 242 243 243 243 243 243 243 242 242 243 243 244 246 247 248 249 250 251 253 256 258 261 263 265 266 267
271 267 264 261 256 250 247 245 244 243 241 240 240 240 240 241 241 241 241 241 241 242 243 244 244 245 246 248 249 251 253 255 258 261 263 266 268 269
271 266 262 261 256 250 245 243 242 241 238 238 238 239 238 239 239 240 239 239 240 240 242 244 244 245 245 247 249 251 253 255 258 260 263 265 267 269
272 267 262 260 255 248 244 241 238 237 237 236 236 237 237 237 238 239 239 238 238 239 240 242 243 244 245 246 247 249 252 254 257 260 263 265 267 270
Height
5809 5807 5806 5804 5803 5802 5801 5801 5801 5802 5803 5804 5806 5809 5812 5815 5818 5822 5826 5830 5833 5837 5841 5844 5848 5851 5854 5857 5860 5863 5865 5868 5870 5872 5874 5876 5878 5880
5808 5806 5805 5804 5802 5801 5800 5800 5799 5800 5801 5802 5804 5806 5808 5811 5814 5818 5821 5825 5828 5832 5835 5839 5842 5845 5849 5851 5854 5857 5860 5862 5864 5867 5869 5870 5872 5874
5806 5805 5803 5802 5801 5800 5799 5798 5798 5798 5798 5799 5801 5802 5805 5807 5810 5813 5817 5820 5823 5827 5830 5833 5837 5840 5843 5846 5848 5851 5854 5856 5858 5860 5862 5864 5866 5868
5804 5803 5801 5800 5798 5797 5796 5796 5795 5796 5796 5797 5798 5799 5801 5804 5806 5809 5812 5815 5818 5821 5824 5827 5831 5834 5837 5839 5842 5845 5847 5850 5852 5854 5856 5858 5859 5861
5801 5799 5798 5797 5795 5794 5793 5793 5792 5792 5793 5794 5795 5796 5797 5799 5802 5804 5807 5809 5812 5815 5818 5821 5824 5827 5830 5833 5835 5838 5840 5843 5845 5847 5849 5851 5852 5854
5797 5795 5793 5792 5791 5791 5790 5789 5789 5789 5789 5790 5791 5792 5793 5795 5797 5799 5802 5804 5807 5809 5812 5814 5817 5820 5823 5826 5828 5831 5833 5835 5838 5840 5841 5843 5845 5846
5791 5790 5788 5787 5787 5786 5785 5785 5784 5784 5785 5785 5786 5787 5788 5790 5792 5794 5796 5798 5801 5803 5805 5808 5810 5813 5816 5818 5821 5823 5825 5828 5830 5832 5834 5835 5837 5838
5785 5783 5782 5782 5781 5780 5780 5779 5779 5779 5780 5780 5780 5781 5783 5784 5786 5788 5790 5792 5795 5797 5799 5801 5803 5806 5808 5811 5813 5815 5818 5820 5822 5824 5826 5827 5828 5830
5776 5775 5774 5774 5774 5773 5773 5773 5773 5773 5773 5774 5774 5775 5777 5778 5779 5781 5783 5786 5788 5790 5792 5794 5796 5798 5801 5803 5805 5807 5809 5811 5813 5815 5817 5819 5820 5821
5767 5766 5765 5765 5765 5765 5765 5765 5765 5766 5766 5767 5768 5768 5770 5771 5773 5775 5776 5779 5781 5783 5785 5787 5789 5791 5793 5795 5797 5799 5801 5803 5805 5807 5809 5810 5811 5812
5756 5755 5754 5754 5755 5755 5756 5756 5757 5757 5758 5759 5760 5761 5762 5764 5765 5767 5769 5771 5773 5775 5777 5779 5781 5783 5785 5786 5788 5791 5792 5794 5796 5798 5800 5801 5802 5803
5743 5742 5742 5742 5743 5743 5744 5746 5747 5748 5749 5750 5751 5753 5754 5756 5757 5759 5762 5764 5765 5767 5769 5771 5773 5775 5777 5779 5780 5782 5784 5786 5788 5790 5791 5792 5793 5794
5728 5728 5727 5728 5729 5730 5732 5734 5735 5737 5738 5740 5742 5744 5746 5747 5749 5751 5753 5755 5757 5759 5761 5763 5765 5767 5769 5771 5773 5774 5776 5778 5779 5781 5782 5783 5784 5786
5712 5712 5712 5712 5714 5716 5718 5721 5723 5725 5727 5729 5731 5734 5736 5738 5740 5742 5743 5746 5748 5750 5752 5754 5756 5758 5761 5763 5765 5766 5768 5770 5771 5772 5773 5774 5776 5776
5694 5695 5695 5696 5698 5701 5704 5707 5709 5712 5714 5717 5720 5723 5725 5728 5730 5732 5734 5737 5739 5741 5743 5745 5748 5749 5752 5754 5756 5758 5759 5761 5763 5764 5765 5766 5767 5768
5676 5677 5678 5679 5681 5684 5688 5691 5695 5698 5701 5705 5708 5711 5714 5717 5719 5722 5724 5727 5730 5732 5734 5736 5738 5741 5743 5745 5747 5749 5751 5752 5754 5755 5756 5757 5758 5758
5657 5658 5660 5661 5663 5667 5671 5674 5678 5683 5687 5691 5695 5698 5701 5704 5708 5711 5714 5716 5720 5723 5725 5727 5729 5731 5733 5735 5738 5740 5742 5743 5745 5746 5747 5748 5749 5750
5636 5638 5641 5642 5645 5649 5652 5656 5661 5666 5671 5676 5680 5684 5688 5692 5695 5699 5702 5705 5709 5712 5715 5717 5720 5722 5725 5727 5729 5731 5733 5734 5736 5737 5738 5739 5740 5741
5617 5619 5621 5624 5626 5630 5634 5638 5644 5650 5655 5660 5665 5670 5674 5679 5683 5686 5690 5694 5697 5701 5704 5707 5710 5712 5715 5718 5720 5722 5724 5725 5727 5728 5729 5730 5731 5731
5599 5600 5602 5605 5608 5612 5615 5620 5626 5632 5638 5644 5649 5654 5660 5665 5669 5674 5678 5682 5686 5690 5693 5696 5700 5703 5706 5708 5710 5712 5714 5716 5717 5718 5719 5720 5721 5721
5581 5582 5583 5586 5589 5593 5597 5602 5607 5613 5620 5626 5632 5638 5644 5650 5655 5660 5665 5669 5674 5678 5682 5686 5689 5692 5695 5698 5700 5702 5704 5706 5707 5709 5710 5710 5711 5711
5563 5564 5566 5568 5571 5575 5579 5584 5590 5596 5603 5609 5616 5622 5629 5635 5641 5646 5652 5656 5661 5666 5671 5674 5677 5681 5684 5687 5690 5692 5694 5696 5697 5699 5700 5701 5701 5701
5547 5547 5549 5551 5554 5558 5563 5567 5573 5580 5587 5593 5600 5607 5613 5620 5627 5632 5638 5643 5648 5654 5658 5662 5666 5669 5673 5676 5679 5682 5684 5685 5687 5689 5690 5690 5691 5691